Flag for U.S.A. Weather past 2 weeks in Pensacola, Florida, U.S.A.

Now
88 °F

Passing clouds.


Feels Like: 94 °F
Forecast: 77 / 91 °F
Wind: 10 mph from West

Location: Pensacola Regional Airport

Current Time: Jul 3, 2015 at 12:52:32 PM

Latest Report: Jul 3, 2015 at 11:53 AM


Visibility: 10 mi

Pressure: 30.07 "Hg

Humidity: 57%

Dew point: 71 °F

Location of PensacolaLocation

Historic Weather in Pensacola — Graph

°F

Pensacola temperature yesterday

Maximum temperature yesterday: 89 °F (at 4:53 PM)
Minimum temperature yesterday: 74 °F (at 1:53 AM)
Average temperature yesterday: 82 °F

Past Weeks' High & Low Weather Summary

 TemperatureHumidityPressure
High93 °F (Jun 20, 1:53 PM)100% (Jun 26, 6:53 AM)30.20 "Hg (Jun 26, 6:53 AM)
Low73 °F (Jun 25, 3:53 AM)46% (Jun 20, 1:53 PM)29.93 "Hg (Jun 28, 3:53 AM)
Average82 °F75%30.06 "Hg
* Reported Jun 18 10:53 AM — Jul 3 10:53 AM, Pensacola, Weather by CustomWeather, © 2015

Note: Actual official high and low records may vary slightly from our data, if they occured in-between our weather recording intervals... More about our weather records

Advertising

Pensacola weather history for previous 24 hours

 ConditionsComfort  
Time TempWeatherWind HumidityBarometerVisibility
10:53 AM
Fri, Jul 3
86 °FScattered clouds.12 mph63%30.08 "Hg10 mi
9:53 AM86 °FScattered clouds.9 mph70%30.06 "Hg10 mi
8:53 AM83 °FSunny.9 mph79%30.07 "Hg10 mi
7:53 AM82 °FSunny.6 mph82%30.07 "Hg10 mi
6:53 AM80 °FSunny.5 mph87%30.06 "Hg10 mi
5:53 AM80 °FPassing clouds.7 mph85%30.05 "Hg10 mi
4:53 AM80 °FClear.7 mph85%30.03 "Hg10 mi
3:53 AM80 °FClear.9 mph81%30.04 "Hg10 mi
2:53 AM80 °FClear.7 mph79%30.04 "Hg10 mi
1:53 AM80 °FClear.7 mph76%30.05 "Hg10 mi
12:53 AM79 °FClear.8 mph79%30.05 "Hg10 mi
11:53 PM
Thu, Jul 2
78 °FClear.7 mph82%30.04 "Hg10 mi
10:53 PM79 °FClear.8 mph79%30.04 "Hg10 mi
9:53 PM79 °FClear.8 mph82%30.05 "Hg10 mi
8:53 PM80 °FClear.10 mph81%30.03 "Hg10 mi
7:53 PM82 °FSunny.10 mph72%30.03 "Hg10 mi
6:53 PM84 °FSunny.13 mph67%30.04 "Hg10 mi
5:53 PM88 °FSunny.15 mph57%30.04 "Hg10 mi
4:53 PM89 °FSunny.13 mph55%30.04 "Hg10 mi
3:53 PM87 °FSunny.10 mph59%30.04 "Hg10 mi
2:53 PM87 °FPassing clouds.9 mph61%30.05 "Hg10 mi
1:53 PM86 °FPassing clouds.12 mph61%30.07 "Hg10 mi
12:53 PM88 °FScattered clouds.9 mph57%30.08 "Hg10 mi
Weather by CustomWeather, © 2015

See weather overviewHow to use our weather pages